| time (UTC) | temp F | wind direction | speed knots | gust knots | rain 1hr in | rain 24hr in | rain mn in | humidity % | barometer mb |
| 20260507015452 | 80 | 68 | 0.0 | 0.0 | 0.00 | 0.00 | 0.00 | 51 | 994.7 |
| 20260507014949 | 80 | 71 | 0.0 | 0.0 | 0.00 | 0.00 | 0.00 | 52 | 994.7 |
| 20260507014445 | 80 | 76 | 0.0 | 0.0 | 0.00 | 0.00 | 0.00 | 53 | 994.7 |
| 20260507013941 | 80 | 64 | 0.0 | 0.0 | 0.00 | 0.00 | 0.00 | 53 | 994.7 |
| 20260507013438 | 80 | 93 | 2.6 | 4.3 | 0.00 | 0.00 | 0.00 | 54 | 994.7 |
| 20260507012935 | 80 | 59 | 3.5 | 4.3 | 0.00 | 0.00 | 0.00 | 53 | 994.7 |
| 20260507012432 | 80 | 109 | 0.0 | 0.0 | 0.00 | 0.00 | 0.00 | 52 | 994.4 |
| 20260507011928 | 80 | 92 | 0.0 | 0.0 | 0.00 | 0.00 | 0.00 | 51 | 994.7 |
| 20260507011425 | 80 | 78 | 0.0 | 0.0 | 0.00 | 0.00 | 0.00 | 51 | 994.7 |
| 20260507010920 | 80 | 89 | 0.9 | 2.6 | 0.00 | 0.00 | 0.00 | 50 | 994.7 |
| 20260507010415 | 80 | 71 | 2.6 | 4.3 | 0.00 | 0.00 | 0.00 | 50 | 994.7 |
| 20260507005913 | 80 | 93 | 0.0 | 2.6 | 0.00 | 0.00 | 0.00 | 51 | 994.4 |
| 20260507005409 | 81 | 80 | 2.6 | 4.3 | 0.00 | 0.00 | 0.00 | 51 | 994.4 |
| 20260507004906 | 81 | 67 | 1.7 | 2.6 | 0.00 | 0.00 | 0.00 | 50 | 994.4 |
| 20260507004403 | 81 | 80 | 0.0 | 0.0 | 0.00 | 0.00 | 0.00 | 50 | 994.4 |
| 20260507003900 | 82 | 90 | 0.0 | 0.0 | 0.00 | 0.00 | 0.00 | 49 | 994.4 |
| 20260507003355 | 82 | 87 | 0.0 | 0.0 | 0.00 | 0.00 | 0.00 | 47 | 994.7 |
| 20260507002851 | 82 | 83 | 0.0 | 0.0 | 0.00 | 0.00 | 0.00 | 47 | 994.4 |
| 20260507002347 | 82 | 72 | 3.5 | 4.3 | 0.00 | 0.00 | 0.00 | 48 | 994.4 |
| 20260507001844 | 82 | 49 | 3.5 | 4.3 | 0.00 | 0.00 | 0.00 | 50 | 994.4 |
| 20260507001341 | 82 | 64 | 7.0 | 8.7 | 0.00 | 0.00 | 0.00 | 49 | 994.4 |
| 20260507000838 | 82 | 66 | 4.3 | 4.3 | 0.00 | 0.00 | 0.00 | 49 | 994.7 |
| 20260507000335 | 82 | 52 | 3.5 | 6.1 | 0.00 | 0.00 | 0.00 | 49 | 994.4 |
| 20260506235830 | 82 | 56 | 5.2 | 6.1 | 0.00 | 0.00 | 0.00 | 48 | 994.4 |
| 20260506235327 | 82 | 39 | 2.6 | 4.3 | 0.00 | 0.00 | 0.00 | 47 | 994.4 |
| 20260506234823 | 82 | 66 | 2.6 | 4.3 | 0.00 | 0.00 | 0.00 | 47 | 994.4 |
| 20260506234321 | 81 | 70 | 2.6 | 2.6 | 0.00 | 0.00 | 0.00 | 44 | 994.1 |
| 20260506233818 | 81 | 67 | 3.5 | 4.3 | 0.00 | 0.00 | 0.00 | 46 | 994.4 |
| 20260506233314 | 81 | 71 | 0.0 | 0.0 | 0.00 | 0.00 | 0.00 | 47 | 994.4 |
| 20260506232811 | 81 | 72 | 2.6 | 4.3 | 0.00 | 0.00 | 0.00 | 46 | 994.4 |
| 20260506232306 | 81 | 276 | 2.6 | 4.3 | 0.00 | 0.00 | 0.00 | 46 | 994.4 |
| 20260506231803 | 81 | 78 | 0.0 | 0.0 | 0.00 | 0.00 | 0.00 | 51 | 994.4 |
| 20260506231301 | 81 | 57 | 2.6 | 4.3 | 0.00 | 0.00 | 0.00 | 52 | 994.4 |
| 20260506230758 | 82 | 25 | 0.0 | 0.0 | 0.00 | 0.00 | 0.00 | 48 | 994.4 |
| 20260506230255 | 82 | 69 | 0.9 | 2.6 | 0.00 | 0.00 | 0.00 | 45 | 994.4 |
| 20260506225751 | 82 | 61 | 0.0 | 0.0 | 0.00 | 0.00 | 0.00 | 46 | 994.4 |
| 20260506225248 | 82 | 67 | 0.0 | 0.0 | 0.00 | 0.00 | 0.00 | 42 | 994.4 |
| 20260506224739 | 83 | 62 | 0.9 | 2.6 | 0.00 | 0.00 | 0.00 | 42 | 994.1 |
| 20260506224237 | 83 | 59 | 4.3 | 6.1 | 0.00 | 0.00 | 0.00 | 41 | 994.4 |
| 20260506223732 | 83 | 68 | 0.9 | 2.6 | 0.00 | 0.00 | 0.00 | 42 | 994.4 |
| 20260506223228 | 83 | 85 | 3.5 | 4.3 | 0.00 | 0.00 | 0.00 | 42 | 994.4 |
| 20260506222725 | 84 | 58 | 2.6 | 4.3 | 0.00 | 0.00 | 0.00 | 42 | 994.1 |
| 20260506222221 | 85 | 91 | 2.6 | 4.3 | 0.00 | 0.00 | 0.00 | 42 | 994.4 |
| 20260506221719 | 86 | 71 | 0.9 | 2.6 | 0.00 | 0.00 | 0.00 | 43 | 994.4 |
| 20260506221217 | 86 | 59 | 5.2 | 6.1 | 0.00 | 0.00 | 0.00 | 43 | 994.4 |
| 20260506220714 | 86 | 98 | 5.2 | 6.1 | 0.00 | 0.00 | 0.00 | 42 | 994.4 |
| 20260506220208 | 86 | 96 | 5.2 | 6.1 | 0.00 | 0.00 | 0.00 | 31 | 994.4 |
| 20260506215705 | 86 | 288 | 0.9 | 2.6 | 0.00 | 0.00 | 0.00 | 30 | 994.4 |
| 20260506215201 | 84 | 177 | 1.7 | 2.6 | 0.00 | 0.00 | 0.00 | 32 | 994.7 |
| 20260506214658 | 83 | 188 | 4.3 | 6.1 | 0.00 | 0.00 | 0.00 | 37 | 994.4 |
| 20260506214155 | 82 | 206 | 5.2 | 6.1 | 0.00 | 0.00 | 0.00 | 39 | 994.7 |
| 20260506213654 | 82 | 195 | 7.8 | 8.7 | 0.00 | 0.00 | 0.00 | 39 | 994.4 |
| 20260506213150 | 81 | 204 | 5.2 | 6.1 | 0.00 | 0.00 | 0.00 | 40 | 994.4 |
| 20260506212647 | 81 | 226 | 7.0 | 8.7 | 0.00 | 0.00 | 0.00 | 41 | 994.7 |
| 20260506212142 | 81 | 217 | 6.1 | 8.7 | 0.00 | 0.00 | 0.00 | 48 | 994.7 |
| 20260506211638 | 81 | 235 | 8.7 | 13.0 | 0.00 | 0.00 | 0.00 | 48 | 994.7 |
| 20260506211135 | 81 | 280 | 12.2 | 14.8 | 0.00 | 0.00 | 0.00 | 47 | 995.1 |
| 20260506210632 | 81 | 268 | 7.0 | 8.7 | 0.00 | 0.00 | 0.00 | 47 | 995.1 |
| 20260506210129 | 82 | 227 | 6.1 | 6.1 | 0.00 | 0.00 | 0.00 | 43 | 995.1 |
| 20260506205626 | 81 | 185 | 7.8 | 13.0 | 0.00 | 0.00 | 0.00 | 45 | 995.1 |
| 20260506205120 | 81 | 177 | 8.7 | 10.4 | 0.00 | 0.00 | 0.00 | 45 | 995.1 |
| 20260506204618 | 81 | 208 | 8.7 | 10.4 | 0.00 | 0.00 | 0.00 | 45 | 995.1 |
| 20260506204115 | 81 | 222 | 10.4 | 13.0 | 0.00 | 0.00 | 0.00 | 46 | 995.4 |
| 20260506203614 | 81 | 230 | 12.2 | 14.8 | 0.00 | 0.00 | 0.00 | 46 | 995.4 |
| 20260506203110 | 81 | 183 | 8.7 | 10.4 | 0.00 | 0.00 | 0.00 | 45 | 995.4 |
| 20260506202608 | 80 | 213 | 8.7 | 10.4 | 0.00 | 0.00 | 0.00 | 46 | 995.4 |
| 20260506202104 | 81 | 272 | 7.0 | 8.7 | 0.00 | 0.00 | 0.00 | 44 | 995.8 |
| 20260506201601 | 81 | 195 | 8.7 | 10.4 | 0.00 | 0.00 | 0.00 | 45 | 995.8 |
| 20260506201058 | 81 | 191 | 6.1 | 8.7 | 0.00 | 0.00 | 0.00 | 46 | 995.8 |
| 20260506200554 | 82 | 186 | 9.6 | 13.0 | 0.00 | 0.00 | 0.00 | 48 | 995.8 |
| 20260506200051 | 82 | 181 | 10.4 | 13.0 | 0.00 | 0.00 | 0.00 | 49 | 995.8 |
| 20260506195547 | 82 | 214 | 9.6 | 13.0 | 0.00 | 0.00 | 0.00 | 43 | 996.1 |
| 20260506195044 | 83 | 160 | 5.2 | 6.1 | 0.00 | 0.00 | 0.00 | 42 | 996.1 |
| 20260506194542 | 83 | 159 | 6.1 | 6.1 | 0.00 | 0.00 | 0.00 | 41 | 996.1 |
| 20260506194038 | 83 | 214 | 5.2 | 6.1 | 0.00 | 0.00 | 0.00 | 42 | 996.1 |
| 20260506193536 | 84 | 228 | 7.8 | 10.4 | 0.00 | 0.00 | 0.00 | 42 | 996.1 |
| 20260506193033 | 84 | 227 | 6.1 | 6.1 | 0.00 | 0.00 | 0.00 | 41 | 996.1 |
| 20260506192529 | 85 | 187 | 7.0 | 8.7 | 0.00 | 0.00 | 0.00 | 41 | 996.1 |
| 20260506192025 | 85 | 172 | 8.7 | 8.7 | 0.00 | 0.00 | 0.00 | 40 | 996.1 |
| 20260506191522 | 85 | 225 | 6.1 | 8.7 | 0.00 | 0.00 | 0.00 | 36 | 996.1 |
| 20260506191018 | 85 | 191 | 6.1 | 8.7 | 0.00 | 0.00 | 0.00 | 36 | 996.1 |
| 20260506190515 | 85 | 217 | 0.9 | 2.6 | 0.00 | 0.00 | 0.00 | 36 | 996.4 |
| 20260506190012 | 85 | 191 | 7.8 | 8.7 | 0.00 | 0.00 | 0.00 | 36 | 996.1 |
| 20260506185510 | 85 | 196 | 3.5 | 4.3 | 0.00 | 0.00 | 0.00 | 39 | 996.4 |
| 20260506185006 | 85 | 189 | 7.0 | 8.7 | 0.00 | 0.00 | 0.00 | 38 | 996.4 |
| 20260506184504 | 85 | 189 | 3.5 | 4.3 | 0.00 | 0.00 | 0.00 | 38 | 996.4 |
| 20260506184001 | 85 | 179 | 4.3 | 6.1 | 0.00 | 0.00 | 0.00 | 38 | 996.4 |
| 20260506183456 | 85 | 274 | 5.2 | 6.1 | 0.00 | 0.00 | 0.00 | 39 | 996.8 |
| 20260506182953 | 85 | 173 | 0.9 | 2.6 | 0.00 | 0.00 | 0.00 | 36 | 996.4 |
| 20260506182450 | 84 | 123 | 0.0 | 2.6 | 0.00 | 0.00 | 0.00 | 40 | 996.4 |
| 20260506181947 | 84 | 142 | 3.5 | 4.3 | 0.00 | 0.00 | 0.00 | 41 | 996.4 |
| 20260506181446 | 83 | 269 | 5.2 | 8.7 | 0.00 | 0.00 | 0.00 | 40 | 996.8 |
| 20260506180942 | 83 | 194 | 0.9 | 2.6 | 0.00 | 0.00 | 0.00 | 43 | 996.4 |
| 20260506180438 | 83 | 178 | 3.5 | 6.1 | 0.00 | 0.00 | 0.00 | 42 | 996.4 |
| 20260506175935 | 82 | 271 | 1.7 | 2.6 | 0.00 | 0.00 | 0.00 | 45 | 996.8 |
| 20260506175432 | 82 | 277 | 2.6 | 4.3 | 0.00 | 0.00 | 0.00 | 50 | 996.4 |
| 20260506174928 | 83 | 267 | 3.5 | 4.3 | 0.00 | 0.00 | 0.00 | 51 | 996.8 |
| 20260506174427 | 83 | 194 | 5.2 | 6.1 | 0.00 | 0.00 | 0.00 | 50 | 996.4 |
| 20260506173923 | 83 | 206 | 3.5 | 4.3 | 0.00 | 0.00 | 0.00 | 50 | 996.4 |
| 20260506173420 | 82 | 305 | 1.7 | 4.3 | 0.00 | 0.00 | 0.00 | 52 | 996.8 |
| 20260506172917 | 82 | 298 | 5.2 | 6.1 | 0.00 | 0.00 | 0.00 | 51 | 996.4 |
| 20260506172414 | 83 | 129 | 0.0 | 0.0 | 0.00 | 0.00 | 0.00 | 53 | 996.4 |
| 20260506171911 | 83 | 165 | 1.7 | 4.3 | 0.00 | 0.00 | 0.00 | 52 | 996.4 |
| 20260506171408 | 83 | 80 | 0.0 | 2.6 | 0.00 | 0.00 | 0.00 | 54 | 996.4 |
| 20260506170906 | 84 | 54 | 0.9 | 2.6 | 0.00 | 0.00 | 0.00 | 53 | 996.1 |
| 20260506170401 | 84 | 75 | 3.5 | 6.1 | 0.00 | 0.00 | 0.00 | 52 | 996.1 |
| 20260506165900 | 83 | 69 | 2.6 | 4.3 | 0.00 | 0.00 | 0.00 | 51 | 996.4 |
| 20260506165358 | 83 | 82 | 0.0 | 0.0 | 0.00 | 0.00 | 0.00 | 49 | 996.8 |
| 20260506164849 | 83 | 6 | 1.7 | 2.6 | 0.00 | 0.00 | 0.00 | 46 | 996.4 |
| 20260506164345 | 83 | 189 | 0.9 | 2.6 | 0.00 | 0.00 | 0.00 | 51 | 996.4 |
| 20260506163844 | 82 | 189 | 2.6 | 2.6 | 0.00 | 0.00 | 0.00 | 50 | 996.1 |
| 20260506163338 | 82 | 155 | 0.9 | 2.6 | 0.00 | 0.00 | 0.00 | 50 | 996.4 |
| 20260506162833 | 82 | 196 | 3.5 | 4.3 | 0.00 | 0.00 | 0.00 | 52 | 996.4 |
| 20260506162331 | 82 | 282 | 5.2 | 6.1 | 0.00 | 0.00 | 0.00 | 51 | 996.4 |
| 20260506161829 | 82 | 267 | 0.0 | 0.0 | 0.00 | 0.00 | 0.00 | 52 | 996.1 |
| 20260506161326 | 82 | 293 | 4.3 | 6.1 | 0.00 | 0.00 | 0.00 | 52 | 996.1 |
| 20260506160823 | 82 | 187 | 4.3 | 6.1 | 0.00 | 0.00 | 0.00 | 49 | 996.1 |
| 20260506160319 | 82 | 194 | 3.5 | 4.3 | 0.00 | 0.00 | 0.00 | 50 | 996.4 |
| 20260506155818 | 82 | 321 | 3.5 | 4.3 | 0.00 | 0.00 | 0.00 | 51 | 996.4 |
| 20260506155315 | 82 | 310 | 2.6 | 4.3 | 0.00 | 0.00 | 0.00 | 50 | 996.1 |
| 20260506153427 | 83 | 68 | 0.0 | 0.0 | 0.00 | 0.00 | 0.00 | 47 | 996.1 |
| 20260506152925 | 82 | 295 | 0.9 | 4.3 | 0.00 | 0.00 | 0.00 | 44 | 996.1 |
| 20260506152421 | 82 | 166 | 1.7 | 2.6 | 0.00 | 0.00 | 0.00 | 44 | 995.8 |
| 20260506151920 | 81 | 139 | 0.0 | 0.0 | 0.00 | 0.00 | 0.00 | 47 | 995.8 |
| 20260506151417 | 81 | 54 | 0.9 | 2.6 | 0.00 | 0.00 | 0.00 | 48 | 995.8 |
| 20260506150914 | 80 | 73 | 2.6 | 4.3 | 0.00 | 0.00 | 0.00 | 45 | 995.4 |
| 20260506150410 | 80 | 146 | 0.9 | 2.6 | 0.00 | 0.00 | 0.00 | 44 | 995.4 |
| 20260506145908 | 79 | 79 | 0.0 | 2.6 | 0.00 | 0.00 | 0.00 | 43 | 995.4 |
| 20260506145403 | 80 | 109 | 0.0 | 0.0 | 0.00 | 0.00 | 0.00 | 46 | 995.4 |
| 20260506144901 | 80 | 238 | 0.9 | 2.6 | 0.00 | 0.00 | 0.00 | 49 | 995.4 |
| 20260506144357 | 80 | 187 | 2.6 | 4.3 | 0.00 | 0.00 | 0.00 | 48 | 995.8 |
| 20260506143856 | 80 | 203 | 2.6 | 4.3 | 0.00 | 0.00 | 0.00 | 50 | 995.8 |
| 20260506143353 | 80 | 231 | 4.3 | 4.3 | 0.00 | 0.00 | 0.00 | 45 | 995.4 |
| 20260506142851 | 79 | 178 | 2.6 | 4.3 | 0.00 | 0.00 | 0.00 | 43 | 995.4 |
| 20260506142349 | 79 | 353 | 0.0 | 0.0 | 0.00 | 0.00 | 0.00 | 46 | 995.1 |
| 20260506141847 | 79 | 12 | 0.0 | 2.6 | 0.00 | 0.00 | 0.00 | 44 | 995.4 |
| 20260506141344 | 79 | 283 | 0.0 | 0.0 | 0.00 | 0.00 | 0.00 | 46 | 995.1 |
| 20260506140842 | 79 | 236 | 0.0 | 2.6 | 0.00 | 0.00 | 0.00 | 47 | 995.4 |
| 20260506140339 | 80 | 163 | 0.0 | 2.6 | 0.00 | 0.00 | 0.00 | 49 | 995.4 |
| 20260506135836 | 80 | 197 | 2.6 | 4.3 | 0.00 | 0.00 | 0.00 | 47 | 995.1 |
| 20260506135333 | 80 | 187 | 0.0 | 2.6 | 0.00 | 0.00 | 0.00 | 48 | 995.1 |
| 20260506134829 | 79 | 26 | 0.0 | 0.0 | 0.00 | 0.00 | 0.00 | 47 | 995.1 |
| 20260506134325 | 78 | 99 | 0.0 | 0.0 | 0.00 | 0.00 | 0.00 | 44 | 995.1 |
| 20260506133823 | 77 | 44 | 0.0 | 0.0 | 0.00 | 0.00 | 0.00 | 41 | 994.7 |
| 20260506133319 | 76 | 100 | 0.0 | 0.0 | 0.00 | 0.00 | 0.00 | 47 | 994.7 |
| 20260506132816 | 75 | 122 | 0.0 | 0.0 | 0.00 | 0.00 | 0.00 | 47 | 994.7 |
| 20260506132313 | 75 | 115 | 0.0 | 0.0 | 0.00 | 0.00 | 0.00 | 44 | 994.7 |
| 20260506131811 | 74 | 130 | 0.0 | 0.0 | 0.00 | 0.00 | 0.00 | 43 | 994.7 |
| 20260506131307 | 74 | 114 | 0.0 | 0.0 | 0.00 | 0.00 | 0.00 | 42 | 994.7 |
| 20260506130804 | 73 | 186 | 0.0 | 0.0 | 0.00 | 0.00 | 0.00 | 42 | 994.7 |
| 20260506130301 | 74 | 152 | 0.0 | 0.0 | 0.00 | 0.00 | 0.00 | 43 | 994.7 |
| 20260506125759 | 74 | 129 | 0.0 | 0.0 | 0.00 | 0.00 | 0.00 | 47 | 994.7 |
| 20260506125256 | 75 | 68 | 0.0 | 0.0 | 0.00 | 0.00 | 0.00 | 48 | 994.7 |
| 20260506124755 | 75 | 269 | 0.0 | 2.6 | 0.00 | 0.00 | 0.00 | 48 | 994.7 |
| 20260506124252 | 76 | 6 | 3.5 | 4.3 | 0.00 | 0.00 | 0.00 | 45 | 994.7 |
| 20260506123749 | 76 | 42 | 0.9 | 2.6 | 0.00 | 0.00 | 0.00 | 42 | 994.7 |
| 20260506123248 | 77 | 73 | 0.0 | 0.0 | 0.00 | 0.00 | 0.00 | 41 | 994.4 |
| 20260506122744 | 77 | 51 | 3.5 | 4.3 | 0.00 | 0.00 | 0.00 | 37 | 994.4 |
| 20260506122241 | 77 | 132 | 0.9 | 2.6 | 0.00 | 0.00 | 0.00 | 35 | 994.1 |
| 20260506121740 | 76 | 235 | 0.9 | 2.6 | 0.00 | 0.00 | 0.00 | 35 | 994.1 |
| 20260506121236 | 76 | 182 | 2.6 | 4.3 | 0.00 | 0.00 | 0.00 | 36 | 994.1 |
| 20260506120733 | 76 | 87 | 0.9 | 2.6 | 0.00 | 0.00 | 0.00 | 35 | 994.1 |
| 20260506120231 | 75 | 177 | 0.9 | 2.6 | 0.00 | 0.00 | 0.00 | 37 | 993.7 |
| 20260506115729 | 75 | 80 | 0.0 | 0.0 | 0.00 | 0.00 | 0.00 | 39 | 994.1 |
| 20260506115227 | 75 | 263 | 0.0 | 2.6 | 0.00 | 0.00 | 0.00 | 41 | 993.7 |
| 20260506114724 | 75 | 53 | 0.0 | 0.0 | 0.00 | 0.00 | 0.00 | 43 | 993.7 |
| 20260506114222 | 75 | 136 | 2.6 | 2.6 | 0.00 | 0.00 | 0.00 | 42 | 993.7 |
| 20260506113720 | 75 | 280 | 6.1 | 8.7 | 0.00 | 0.00 | 0.00 | 43 | 993.7 |
| 20260506113217 | 75 | 189 | 6.1 | 8.7 | 0.00 | 0.00 | 0.00 | 43 | 994.1 |
| 20260506112713 | 75 | 236 | 6.1 | 6.1 | 0.00 | 0.00 | 0.00 | 43 | 993.7 |
| 20260506112211 | 75 | 186 | 6.1 | 6.1 | 0.00 | 0.00 | 0.00 | 43 | 993.7 |
| 20260506111708 | 76 | 108 | 1.7 | 4.3 | 0.00 | 0.00 | 0.00 | 43 | 993.7 |
| 20260506111207 | 76 | 227 | 4.3 | 6.1 | 0.00 | 0.00 | 0.00 | 42 | 994.1 |
| 20260506110703 | 76 | 193 | 7.0 | 8.7 | 0.00 | 0.00 | 0.00 | 41 | 994.1 |
| 20260506110201 | 77 | 197 | 2.6 | 4.3 | 0.00 | 0.00 | 0.00 | 39 | 993.7 |
| 20260506105657 | 77 | 180 | 5.2 | 6.1 | 0.00 | 0.00 | 0.00 | 37 | 993.7 |
| 20260506105154 | 77 | 131 | 7.0 | 8.7 | 0.00 | 0.00 | 0.00 | 37 | 993.4 |
| 20260506104652 | 77 | 210 | 7.8 | 8.7 | 0.00 | 0.00 | 0.00 | 41 | 993.7 |
| 20260506104149 | 77 | 283 | 7.0 | 10.4 | 0.00 | 0.00 | 0.00 | 44 | 993.7 |
| 20260506103646 | 76 | 197 | 3.5 | 6.1 | 0.00 | 0.00 | 0.00 | 43 | 993.7 |
| 20260506103143 | 75 | 206 | 4.3 | 6.1 | 0.00 | 0.00 | 0.00 | 44 | 993.7 |
| 20260506102642 | 75 | 278 | 3.5 | 4.3 | 0.00 | 0.00 | 0.00 | 46 | 993.7 |
| 20260506102139 | 74 | 304 | 5.2 | 6.1 | 0.00 | 0.00 | 0.00 | 47 | 993.7 |
| 20260506101635 | 74 | 288 | 5.2 | 6.1 | 0.00 | 0.00 | 0.00 | 51 | 993.7 |
| 20260506101132 | 73 | 294 | 2.6 | 4.3 | 0.00 | 0.00 | 0.00 | 54 | 993.7 |
| 20260506100631 | 73 | 76 | 0.0 | 0.0 | 0.00 | 0.00 | 0.00 | 52 | 993.4 |
| 20260506100128 | 73 | 333 | 0.9 | 2.6 | 0.00 | 0.00 | 0.00 | 52 | 993.7 |
| 20260506095627 | 73 | 89 | 0.0 | 0.0 | 0.00 | 0.00 | 0.00 | 51 | 993.7 |
| 20260506095123 | 73 | 85 | 0.0 | 0.0 | 0.00 | 0.00 | 0.00 | 51 | 993.7 |
| 20260506094621 | 73 | 119 | 0.9 | 2.6 | 0.00 | 0.00 | 0.00 | 51 | 993.7 |
| 20260506094118 | 73 | 80 | 0.0 | 2.6 | 0.00 | 0.00 | 0.00 | 51 | 993.7 |
| 20260506093616 | 73 | 78 | 0.0 | 0.0 | 0.00 | 0.00 | 0.00 | 52 | 993.7 |
| 20260506093113 | 73 | 74 | 0.0 | 0.0 | 0.00 | 0.00 | 0.00 | 52 | 993.7 |
| 20260506092611 | 73 | 91 | 0.0 | 0.0 | 0.00 | 0.00 | 0.00 | 52 | 993.7 |
| 20260506092108 | 73 | 90 | 0.0 | 0.0 | 0.00 | 0.00 | 0.00 | 52 | 993.7 |
| 20260506091606 | 73 | 94 | 0.0 | 0.0 | 0.00 | 0.00 | 0.00 | 51 | 994.1 |
| 20260506091103 | 74 | 81 | 0.0 | 0.0 | 0.00 | 0.00 | 0.00 | 51 | 994.1 |
| 20260506090601 | 74 | 87 | 0.9 | 2.6 | 0.00 | 0.00 | 0.00 | 52 | 994.1 |
| 20260506090057 | 74 | 73 | 0.0 | 2.6 | 0.00 | 0.00 | 0.00 | 52 | 994.1 |
| 20260506085554 | 74 | 127 | 0.0 | 0.0 | 0.00 | 0.00 | 0.00 | 52 | 994.1 |
| 20260506085050 | 74 | 56 | 0.0 | 0.0 | 0.00 | 0.00 | 0.00 | 52 | 994.4 |
| 20260506084547 | 74 | 97 | 0.0 | 0.0 | 0.00 | 0.00 | 0.00 | 52 | 994.1 |
| 20260506084044 | 73 | 87 | 0.0 | 0.0 | 0.00 | 0.00 | 0.00 | 52 | 994.1 |
| 20260506083541 | 73 | 88 | 0.0 | 2.6 | 0.00 | 0.00 | 0.00 | 53 | 994.1 |
| 20260506083038 | 73 | 82 | 0.0 | 0.0 | 0.00 | 0.00 | 0.00 | 52 | 994.1 |
| 20260506082535 | 73 | 80 | 0.0 | 0.0 | 0.00 | 0.00 | 0.00 | 52 | 994.1 |
| 20260506082031 | 73 | 76 | 0.0 | 0.0 | 0.00 | 0.00 | 0.00 | 52 | 994.1 |
| 20260506081529 | 73 | 61 | 0.0 | 0.0 | 0.00 | 0.00 | 0.00 | 52 | 994.1 |
| 20260506081026 | 73 | 90 | 0.0 | 0.0 | 0.00 | 0.00 | 0.00 | 53 | 994.1 |
| 20260506080524 | 73 | 64 | 0.0 | 0.0 | 0.00 | 0.00 | 0.00 | 52 | 994.1 |
| 20260506073507 | 74 | 64 | 0.0 | 0.0 | 0.00 | 0.00 | 0.00 | 53 | 994.4 |
| 20260506073004 | 74 | 44 | 0.0 | 0.0 | 0.00 | 0.00 | 0.00 | 53 | 994.4 |
| 20260506072501 | 74 | 76 | 0.0 | 0.0 | 0.00 | 0.00 | 0.00 | 52 | 994.4 |
| 20260506071959 | 74 | 75 | 0.0 | 0.0 | 0.00 | 0.00 | 0.00 | 52 | 994.4 |
| 20260506071457 | 74 | 74 | 0.0 | 0.0 | 0.00 | 0.00 | 0.00 | 53 | 994.4 |
| 20260506070953 | 75 | 74 | 0.0 | 0.0 | 0.00 | 0.00 | 0.00 | 53 | 994.7 |
| 20260506070450 | 75 | 73 | 0.0 | 0.0 | 0.00 | 0.00 | 0.00 | 53 | 994.7 |
| 20260506062428 | 75 | 100 | 0.0 | 0.0 | 0.00 | 0.00 | 0.00 | 52 | 995.1 |
| 20260506061924 | 75 | 91 | 0.0 | 0.0 | 0.00 | 0.00 | 0.00 | 52 | 995.1 |
| 20260506061420 | 75 | 79 | 0.0 | 0.0 | 0.00 | 0.00 | 0.00 | 52 | 995.4 |
| 20260506060919 | 76 | 70 | 0.0 | 0.0 | 0.00 | 0.00 | 0.00 | 52 | 995.1 |
| 20260506060417 | 76 | 74 | 0.0 | 0.0 | 0.00 | 0.00 | 0.00 | 52 | 995.4 |
| 20260506051348 | 77 | 10 | 0.9 | 2.6 | 0.00 | 0.00 | 0.00 | 50 | 995.1 |
| 20260506050846 | 77 | 36 | 0.0 | 0.0 | 0.00 | 0.00 | 0.00 | 49 | 995.1 |
| 20260506050343 | 77 | 37 | 0.0 | 2.6 | 0.00 | 0.00 | 0.00 | 50 | 995.4 |
| 20260506044833 | 77 | 21 | 0.0 | 0.0 | 0.00 | 0.00 | 0.00 | 52 | 995.1 |
| 20260506044331 | 77 | 332 | 0.0 | 0.0 | 0.00 | 0.00 | 0.00 | 52 | 994.7 |
| 20260506043828 | 77 | 325 | 0.0 | 0.0 | 0.00 | 0.00 | 0.00 | 52 | 995.1 |
| 20260506043325 | 77 | 333 | 0.0 | 0.0 | 0.00 | 0.00 | 0.00 | 52 | 994.7 |
| 20260506042824 | 77 | 309 | 1.7 | 2.6 | 0.00 | 0.00 | 0.00 | 53 | 995.1 |
| 20260506042323 | 77 | 286 | 0.0 | 2.6 | 0.00 | 0.00 | 0.00 | 53 | 994.7 |
| 20260506041821 | 77 | 330 | 0.0 | 0.0 | 0.00 | 0.00 | 0.00 | 53 | 994.7 |
| 20260506041317 | 77 | 301 | 1.7 | 2.6 | 0.00 | 0.00 | 0.00 | 53 | 994.7 |
| 20260506040815 | 77 | 13 | 0.0 | 0.0 | 0.00 | 0.00 | 0.00 | 53 | 994.7 |
| 20260506040312 | 77 | 323 | 0.0 | 0.0 | 0.00 | 0.00 | 0.00 | 53 | 994.4 |
| 20260506035808 | 77 | 238 | 0.0 | 0.0 | 0.00 | 0.00 | 0.00 | 53 | 994.7 |
| 20260506035306 | 77 | 183 | 0.0 | 0.0 | 0.00 | 0.00 | 0.00 | 52 | 994.7 |
| 20260506034803 | 77 | 269 | 0.9 | 2.6 | 0.00 | 0.00 | 0.00 | 52 | 994.7 |
| 20260506034300 | 77 | 137 | 0.0 | 0.0 | 0.00 | 0.00 | 0.00 | 52 | 994.4 |
| 20260506033756 | 77 | 272 | 0.0 | 0.0 | 0.00 | 0.00 | 0.00 | 52 | 994.7 |
| 20260506033253 | 77 | 180 | 0.9 | 2.6 | 0.00 | 0.00 | 0.00 | 52 | 994.4 |
| 20260506032750 | 77 | 164 | 0.0 | 0.0 | 0.00 | 0.00 | 0.00 | 52 | 994.4 |
| 20260506032247 | 77 | 263 | 0.0 | 2.6 | 0.00 | 0.00 | 0.00 | 52 | 994.4 |
| 20260506031744 | 77 | 251 | 0.0 | 0.0 | 0.00 | 0.00 | 0.00 | 51 | 994.4 |
| 20260506031241 | 77 | 294 | 0.0 | 0.0 | 0.00 | 0.00 | 0.00 | 51 | 994.4 |
| 20260506030739 | 77 | 207 | 0.0 | 0.0 | 0.00 | 0.00 | 0.00 | 51 | 994.1 |
| 20260506030237 | 77 | 271 | 0.0 | 2.6 | 0.00 | 0.00 | 0.00 | 50 | 994.1 |
| 20260506025733 | 77 | 195 | 2.6 | 4.3 | 0.00 | 0.00 | 0.00 | 50 | 994.1 |
| 20260506025230 | 77 | 181 | 0.0 | 0.0 | 0.00 | 0.00 | 0.00 | 50 | 994.1 |
| 20260506024727 | 77 | 206 | 0.9 | 2.6 | 0.00 | 0.00 | 0.00 | 50 | 994.1 |
| 20260506024223 | 77 | 219 | 0.9 | 2.6 | 0.00 | 0.00 | 0.00 | 50 | 994.1 |
| 20260506023719 | 77 | 192 | 2.6 | 4.3 | 0.00 | 0.00 | 0.00 | 50 | 993.7 |
| 20260506023216 | 77 | 201 | 2.6 | 4.3 | 0.00 | 0.00 | 0.00 | 50 | 994.1 |
| 20260506022713 | 78 | 140 | 0.9 | 2.6 | 0.00 | 0.00 | 0.00 | 51 | 994.1 |
| 20260506022211 | 78 | 229 | 2.6 | 4.3 | 0.00 | 0.00 | 0.00 | 50 | 993.7 |
| 20260506021709 | 78 | 182 | 2.6 | 4.3 | 0.00 | 0.00 | 0.00 | 50 | 994.1 |
| 20260506021205 | 78 | 176 | 3.5 | 4.3 | 0.00 | 0.00 | 0.00 | 50 | 993.7 |
| 20260506020702 | 78 | 156 | 0.0 | 0.0 | 0.00 | 0.00 | 0.00 | 51 | 994.1 |
| 20260506020200 | 78 | 66 | 0.0 | 0.0 | 0.00 | 0.00 | 0.00 | 52 | 994.1 |